Hourly Data Report for July 11, 2017

QUALICUM BEACH AIRPORT
BRITISH COLUMBIA

49°20'14.000" N
124°23'38.000" W
58.20 m
1026562
71766
VOQ

Download Data

Hourly Data (July 2017)
Hourly Data Report for July 11, 2017
TIME
LST
Temp Definition
°C
Dew Point Definition
°C
Rel Hum Definition
%
Precip. Amount Definition
mm

Wind Dir Definition
10's deg

Wind Spd Definition
km/h
Visibility Definition
km
Stn Press Definition
kPa
Hmdx Definition


Wind Chill Definition


Weather Definition


00:00 14.5 9.4 71 0.0 28 9   101.07     LegendNANA
01:00 14.3 8.9 70 0.0 28 9   101.10     LegendNANA
02:00 13.4 9.0 75 0.0 27 6   101.12     LegendNANA
03:00 11.8 9.0 83 0.0 26 3   101.14     LegendNANA
04:00 10.7 8.6 87 0.0 26 3   101.16     LegendNANA
05:00 10.1 8.5 90 0.0 27 1   101.18     LegendNANA
06:00 12.1 9.5 84 0.0 26 3   101.19     LegendNANA
07:00 15.7 9.0 64 0.0 32 6   101.23     LegendNANA
08:00 16.6 8.6 59 0.0 31 6   101.25     LegendNANA
09:00 17.6 9.1 58 0.0 2 6   101.24     LegendNANA
10:00 18.3 10.1 59 0.0 2 6   101.23     LegendNANA
11:00 19.4 9.9 54 0.0 7 7   101.19     LegendNANA
12:00 20.0 8.8 49 0.0 10 11   101.16     LegendNANA
13:00 20.2 9.4 50 0.0 10 13   101.13     LegendNANA
14:00 21.5 10.4 49 0.0 9 12   101.08     LegendNANA
15:00 21.5 9.5 46 0.0 10 16   101.05     LegendNANA
16:00 21.6 11.2 52 0.0 10 13   100.96     LegendNANA
17:00 22.1 10.5 48 0.0 11 8   100.91     LegendNANA
18:00 22.1 11.3 50 0.0 9 5   100.89     LegendNANA
19:00 21.4 11.9 55 0.0 13 2   100.85     LegendNANA
20:00 19.0 13.5 71 0.0   0   100.83     LegendNANA
21:00 17.2 13.1 76 0.0 19 2   100.84     LegendNANA
22:00 15.9 12.7 81 0.0 25 2   100.83     LegendNANA
23:00 15.7 11.5 76 0.0 28 4   100.82     LegendNANA

Notes on Data Quality.

Legend

  • E = Estimated
  • M = Missing
  • NA = Not Available*
  • [empty] = Indicates an unobserved value
Date modified: